YAOGAN-3

Last updated on Thu Oct 30 2025 00:02:31 GMT+0000 (Coordinated Universal Time)

1 32289U 07055A 25302.55211731 .00003410 00000+0 36355-3 0 9990 2 32289 97.8424 329.5732 0001910 97.0621 263.0813 14.89535322971515
UTC large
Height (km)
Speed (km/s)
/
Latitude / Longitude
Inclination (degrees)
Orbital Period (minutes)
Azimuth
Elevation
Range (km)
Doppler Factor

Next 0 passes for location: London (51.5072 / 0.1276)

Sorry there are no passes over London.